Weather History for KHVN - March, 2013

Change the Weather History Date:

Monday, March 11, 2013

  Actual Average Record
Temperature  
Mean Temperature 45 °F -  
Max Temperature 51 °F 41 °F 68 °F (1977)
Min Temperature 39 °F 28 °F 13 °F (1987)
Degree Days  
Heating Degree Days 20    
Moisture  
Dew Point 38 °F    
Average Humidity 80    
Maximum Humidity 89    
Minimum Humidity 68    
Precipitation  
Precipitation 0.00 in - - ()
Sea Level Pressure  
Sea Level Pressure 30.23 in    
Wind  
Wind Speed 4 mph (ESE)    
Max Wind Speed 10 mph    
Max Gust Speed -    
Visibility 10 miles    
Events      
Averages and records for this station are not official NWS values.
T = Trace of Precipitation, MM = Missing Value Source: NWS Daily Summary

Daily Weather History Graph

Daily Weather History Graph

Search for Another Location

Airport or City:

Trip Planner

Search our weather history database for the weather conditions in past years. The results will help you decide how hot, cold, wet, or windy it might be!

Date:

Astronomy

Mar. 11, 2013 Rise Set
Actual Time 7:09 AM EDT 6:54 PM EDT
Civil Twilight 6:42 AM EDT 7:21 PM EDT
Nautical Twilight 6:10 AM EDT 7:53 PM EDT
Astronomical Twilight 5:37 AM EDT 8:25 PM EDT
Moon 6:41 AM EDT (3/11) 7:03 PM EDT (3/11)
Length of Visible Light 12h 39m
Length of Day
11h 44m
Waning Crescent, 0% of the Moon is Illuminated
Mar 11
Waning Crescent
Mar 11
New
Mar 19
First Quarter
Mar 27
Full
Apr 3
Last Quarter

Hourly Weather History & Observations

Time (EDT) Temp. Windchill Dew Point Humidity Pressure Visibility Wind Dir Wind Speed Gust Speed Precip Events Conditions
12:53 AM 39.0 °F - 34.0 °F 82% 30.33 in 10.0 mi Calm Calm - N/A   Overcast
1:53 AM 39.0 °F - 34.0 °F 82% 30.33 in 10.0 mi Calm Calm - N/A   Overcast
2:53 AM 39.2 °F - 33.8 °F 81% 30.30 in 10.0 mi Calm Calm - N/A   Overcast
3:53 AM 39.0 °F 36.8 °F 34.0 °F 82% 30.29 in 10.0 mi ESE 3.5 mph - N/A   Overcast
4:53 AM 39.0 °F - 34.0 °F 82% 30.28 in 10.0 mi Calm Calm - N/A   Overcast
5:09 AM 39.2 °F - 33.8 °F 81% 30.28 in 10.0 mi Calm Calm - N/A   Overcast
5:32 AM 39.2 °F 37.0 °F 33.8 °F 81% 30.28 in 10.0 mi ESE 3.5 mph - N/A   Overcast
5:53 AM 39.0 °F - 34.0 °F 82% 30.28 in 10.0 mi Calm Calm - N/A   Overcast
6:53 AM 39.0 °F 36.8 °F 35.1 °F 86% 30.27 in 10.0 mi SE 3.5 mph - N/A   Overcast
7:53 AM 39.9 °F 36.7 °F 35.1 °F 83% 30.27 in 10.0 mi SE 4.6 mph - N/A   Overcast
8:41 AM 39.2 °F 35.0 °F 35.6 °F 87% 30.26 in 10.0 mi ESE 5.8 mph - N/A   Overcast
8:53 AM 39.9 °F 35.8 °F 36.0 °F 86% 30.27 in 10.0 mi SE 5.8 mph - N/A   Overcast
9:53 AM 41.0 °F 36.4 °F 37.0 °F 86% 30.28 in 10.0 mi SE 6.9 mph - N/A   Overcast
10:06 AM 42.8 °F 38.6 °F 37.4 °F 81% 30.28 in 10.0 mi SE 6.9 mph - N/A   Overcast
10:53 AM 43.0 °F 38.8 °F 37.0 °F 80% 30.28 in 10.0 mi SE 6.9 mph - N/A   Overcast
11:53 AM 46.0 °F 42.5 °F 39.0 °F 76% 30.27 in 10.0 mi SE 6.9 mph - N/A   Overcast
12:53 PM 48.0 °F - 39.9 °F 74% 30.25 in 10.0 mi ESE 10.4 mph - N/A   Scattered Clouds
1:53 PM 48.9 °F - 39.9 °F 71% 30.22 in 10.0 mi ESE 10.4 mph - N/A   Mostly Cloudy
2:53 PM 50.0 °F - 41.0 °F 71% 30.21 in 10.0 mi ESE 9.2 mph - N/A   Partly Cloudy
3:53 PM 51.1 °F - 41.0 °F 68% 30.20 in 10.0 mi SE 5.8 mph - N/A   Clear
4:53 PM 48.9 °F - 39.9 °F 71% 30.18 in 10.0 mi SSE 8.1 mph - N/A   Clear
5:36 PM 48.2 °F - 39.2 °F 71% 30.18 in 10.0 mi SSE 6.9 mph - N/A   Mostly Cloudy
5:53 PM 48.0 °F - 39.9 °F 74% 30.17 in 10.0 mi SE 8.1 mph - N/A   Mostly Cloudy
6:53 PM 46.4 °F 41.9 °F 41.0 °F 81% 30.17 in 10.0 mi SE 9.2 mph - N/A   Overcast
7:53 PM 46.9 °F - 41.0 °F 80% 30.16 in 10.0 mi SE 6.9 mph - N/A   Overcast
8:53 PM 46.0 °F 43.1 °F 41.0 °F 83% 30.16 in 10.0 mi East 5.8 mph - N/A   Overcast
9:53 PM 45.0 °F 42.6 °F 39.9 °F 82% 30.15 in 10.0 mi East 4.6 mph - N/A   Overcast
10:53 PM 44.1 °F 41.5 °F 41.0 °F 89% 30.15 in 10.0 mi East 4.6 mph - N/A   Overcast
11:46 PM 44.6 °F 42.2 °F 41.0 °F 87% 30.12 in 10.0 mi East 4.6 mph - N/A   Scattered Clouds
11:53 PM 44.1 °F 41.5 °F 41.0 °F 89% 30.12 in 10.0 mi East 4.6 mph - N/A   Partly Cloudy